Location: Bârcea-Mic?
(45.8167°N, 22.9500°E)
Time: 15:21:33
(UTC+00:00)

Daily predictions for brighter satellites

Satellite Brightness Start Highest point End
(mag) Time Altitude Azimuth Time Altitude Azimuth Time Altitude Azimuth
Cosmos 1980 Rocket 3.3 18:47:59 10° NW 18:53:21 43° WSW 18:58:39 10° S
Cosmos 2322 Rocket 3.2 18:50:03 10° NNW 18:55:15 35° NE 19:00:27 10° ESE
IRIDIUM 114 4.5 18:50:39 10° N 18:55:54 83° W 19:01:07 10° S
COSMOS 2406 3.6 18:52:25 10° SSW 18:58:09 72° WNW 19:03:55 10° NNE
CZ-4C R/B 3.5 18:56:07 10° NNE 19:00:15 60° ESE 19:04:18 10° S
ARGOS Delta rocket 3.7 18:59:21 10° SSE 19:03:46 67° ENE 19:08:08 10° N
Cosmos 1553 Rocket 4.1 19:00:17 10° N 19:06:30 88° W 19:12:47 10° S
Cosmos 2278 3.8 19:02:22 10° NNW 19:08:07 81° ENE 19:13:49 10° SSE
Cosmos 1674 3.5 19:05:11 10° SSW 19:08:31 47° WNW 19:11:54 10° N
Cosmos 468 Rocket 4.2 19:04:47 10° NNW 19:10:01 75° WSW 19:15:09 10° SSE
S3M 4.3 19:04:03 10° N 19:10:19 56° ENE 19:16:29 10° SSE
Cosmos 1733 Rocket 4.5 19:08:46 10° NNE 19:12:22 24° ENE 19:15:59 10° SE
SL-4 R/B 3.5 19:09:43 10° WNW 19:13:15 36° N 19:17:00 10° ENE
Ariane Rocket 3.6 19:09:01 10° SE 19:13:48 43° ENE 19:18:35 10° N
BREEZE-M DEB (TANK) 4.3 19:11:39 10° W 19:15:51 78° SSW 19:29:41 10° ESE
BREEZE-M DEB (TANK) 2.1 19:13:47 10° WSW 19:15:59 72° SSE 19:19:27 10° ENE
Meteor 1-13 Rocket 4.3 19:11:59 10° S 19:17:46 76° E 19:23:26 10° NNE
Okean-O 3.3 19:15:04 10° S 19:19:22 53° W 19:23:42 10° NNW
Cosmos 2219 Rocket 3.7 19:15:08 10° N 19:19:46 25° NE 19:24:23 10° ESE
Cosmos 2266 Rocket 4.1 19:13:56 10° S 19:20:08 63° E 19:26:28 10° NNE
Cosmos 1300 3.7 19:17:31 10° NNE 19:20:40 28° ENE 19:23:20 13° SE
SL-27 R/B 3.4 19:23:03 14° SE 19:24:31 20° ESE 19:26:39 10° NE
Cosmos 1400 Rocket 2.8 19:20:44 10° S 19:24:31 56° E 19:28:18 10° NNE
Cosmos 2237 4.3 19:18:58 10° NNW 19:24:44 86° WSW 19:30:18 11° SSE
Cosmos 1441 Rocket 3.4 19:21:39 10° NNW 19:25:15 66° W 19:28:51 10° S
Cosmos 1655 Rocket 4.4 19:19:21 10° SSE 19:25:26 48° E 19:31:32 10° NNE
Cosmos 540 Rocket 4.3 19:21:07 10° NNW 19:26:04 49° WSW 19:30:59 10° S
Cosmos 1850 Rocket 4.3 19:22:21 10° S 19:27:19 46° ESE 19:32:17 10° NNE
Cosmos 1356 Rocket 4.2 19:23:41 11° SSE 19:27:20 34° E 19:31:09 10° NNE
USA 245 3.3 19:24:51 11° SSE 19:28:07 73° ENE 19:32:32 10° N
ATLAS CENTAUR R/B 1.4 19:27:21 10° S 19:30:37 39° ESE 19:33:59 10° NE
Cosmos 1908 3.7 19:27:26 10° NNW 19:30:59 54° W 19:34:30 10° S
MOS 1 Rocket 3.7 19:31:12 12° SSE 19:36:14 67° ENE 19:41:29 10° N
Cosmos 1869 Rocket 3.8 19:32:10 10° NNW 19:36:37 75° W 19:41:04 10° S
Cosmos 2228 Rocket 3.5 19:32:28 11° SSE 19:36:43 47° E 19:41:06 10° NNE
Okean O Rocket 4.0 19:35:36 10° SW 19:38:45 19° W 19:41:54 10° NW
Cosmos 968 Rocket 3.9 19:36:19 10° S 19:41:06 42° ESE 19:45:58 10° NE
IRS-1C Rocket 4.5 19:35:58 10° S 19:41:10 63° WSW 19:46:24 10° NNW
Meteor 1-4 Rocket 3.9 19:41:08 15° ESE 19:41:56 17° E 19:43:57 10° NE
SPOT 3 Rocket 3.6 19:37:40 13° SSE 19:42:11 69° ENE 19:47:20 10° N
SeaSat 1 2.5 19:39:21 14° SSE 19:43:40 79° WSW 19:48:37 10° NNW
Cosmos 1953 4.2 19:41:12 10° NNE 19:43:41 16° ENE 19:45:44 12° ESE
Cosmos 1315 Rocket 4.5 19:42:13 15° ESE 19:43:54 18° E 19:46:41 10° NE
Cosmos 2360 Rocket 2.4 19:39:36 10° NNW 19:45:15 62° ENE 19:49:45 16° SE
Cosmos 1741 Rocket 4.0 19:42:30 10° S 19:47:43 66° ESE 19:52:59 10° NNE
SPOT 5 3.9 19:46:38 10° SSW 19:50:38 37° W 19:54:43 10° NNW
EXPRESS MD2 3.6 19:50:43 10° W 19:53:22 39° NNW 19:55:28 10° ENE
USA 234 3.2 19:48:38 10° NE 19:55:13 85° SE 20:01:46 10° SW
Meteor 1-23 Rocket 4.3 19:50:29 10° S 19:56:09 88° W 20:01:56 10° N
BlueWalker 3 3.7 19:57:39 15° ESE 19:57:39 15° ESE 19:58:49 10° E
SL-16 R/B 2.7 19:51:30 10° NW 19:57:03 56° WSW 20:01:48 14° S
Landsat 4 3.5 19:56:28 19° S 19:58:51 77° WSW 20:02:18 10° NNW
Cosmos 2333 Rocket 2.3 19:55:10 10° NNW 20:00:57 75° ENE 20:05:09 19° SE
Landsat 5 3.6 20:01:19 10° NNE 20:05:16 53° E 20:07:59 20° S
SL-14 R/B 3.3 20:04:14 12° SSW 20:07:42 74° W 20:11:31 10° N
Cosmos 2315 Rocket 4.1 20:01:24 10° N 20:07:48 82° W 20:13:14 15° S
Cosmos 1862 Rocket 3.5 20:05:38 16° S 20:09:03 75° E 20:13:29 10° NNE
Okean 3 3.4 20:09:59 21° S 20:12:40 65° E 20:16:48 10° NNE
Atlas Centaur 2 4.2 20:07:11 10° WSW 20:13:11 22° SSW 20:16:21 18° SSE
Cosmos 1833 4.1 20:08:02 10° SSW 20:13:38 70° ESE 20:19:14 10° NNE
Cosmos 1346 Rocket 2.8 20:09:58 10° NNW 20:13:49 75° W 20:16:09 22° S
ERS-1 Rocket 4.0 20:10:03 10° SSW 20:14:44 39° W 20:19:28 10° NNW
Cosmos 2237 Rocket 4.4 20:16:12 10° N 20:19:46 17° NE 20:23:19 10° E
Cosmos 1455 3.0 20:16:56 10° N 20:20:08 32° ENE 20:21:19 25° ESE
Meteor 2-20 4.5 20:17:22 10° N 20:23:35 86° W 20:28:01 20° S
Meteor 1-16 Rocket 4.3 20:18:03 10° N 20:24:00 78° ENE 20:27:52 23° SSE
RESURS DK-1 3.6 20:21:06 10° NW 20:24:46 32° WSW 20:27:05 18° SSW
H-2A R/B 4.4 20:22:42 13° E 20:24:58 19° ENE 20:27:59 10° NNE
Terra 3.1 20:21:54 11° SSW 20:25:57 34° W 20:30:15 10° NNW
SJ 16-02 1.2 20:23:40 17° SSW 20:26:56 81° ESE 20:31:17 10° NNE
Spot 2 Rocket 4.5 20:23:44 13° SSW 20:27:55 40° W 20:32:42 10° NNW
Cosmos 1707 Rocket 4.2 20:25:27 11° SSW 20:29:34 56° WNW 20:33:57 10° N
Aureole 3 3.5 20:27:07 21° SSW 20:29:43 83° WNW 20:34:35 10° N
CZ-2C R/B 4.4 20:25:47 10° NNE 20:29:51 35° E 20:31:21 27° SE
Cosmos 2333 4.2 20:24:07 10° NNW 20:29:55 86° WSW 20:33:27 25° SSE
Cosmos 2322 Rocket 3.1 20:34:04 10° NW 20:39:21 41° WSW 20:42:59 19° SSW
ATLAS 2AS CENTAUR R/B 2.8 20:33:29 10° NW 20:40:13 65° WSW 20:44:10 25° SSE
Cosmos 839 Rocket 4.0 20:34:16 10° NW 20:41:11 86° WSW 20:44:53 26° SSE
BREEZE-M DEB (TANK) 4.3 20:38:19 10° W 20:42:53 75° N 21:02:41 10° ENE
Cosmos 2297 Rocket 3.8 20:45:31 17° ESE 20:46:28 18° E 20:50:05 10° ENE
ARIANE 5 R/B 2.9 20:45:49 31° SE 20:47:36 53° ENE 20:51:50 10° N
Cosmos 1733 Rocket 4.4 20:46:11 10° NNW 20:50:09 34° W 20:53:00 17° SSW
Cosmos 1241 Rocket 4.4 20:45:10 10° SW 20:51:21 86° NW 20:57:38 10° NE
USA 281 3.4 20:47:30 24° SE 20:51:41 69° ENE 20:58:14 10° NNW
SL-4 R/B 3.1 20:48:50 10° WNW 20:52:36 42° NNE 20:56:36 10° E
Cosmos 1745 Rocket 4.3 20:50:21 27° SSE 20:53:38 52° E 20:59:47 10° NNE
CZ-3 Stage 3 4.5 20:13:28 10° W 20:54:07 45° SSW 21:01:01 23° SSE
Okean 1-7 3.2 20:53:31 26° SSW 20:55:53 71° W 21:00:12 10° N
Nadezhda 1 Rocket 4.1 20:56:25 10° N 21:02:43 69° E 21:05:54 30° SSE
Cosmos 2219 Rocket 2.4 20:58:33 10° NNW 21:04:10 64° WSW 21:06:53 31° S
Cosmos 1908 Rocket 3.6 21:00:30 10° NNW 21:04:50 73° W 21:06:27 37° S
GP-B 3.0 21:00:29 10° N 21:04:54 81° E 21:06:32 39° S
Cosmos 1386 Rocket 4.5 21:02:27 28° S 21:05:58 75° E 21:12:10 10° NNE
COSMOS 2428 2.9 21:00:20 10° NNW 21:06:01 67° ENE 21:08:56 29° SE
BREEZE-M DEB (TANK) 3.0 21:04:48 10° W 21:06:53 40° SW 21:06:53 40° SW
Cosmos 1782 Rocket 3.6 21:03:25 10° N 21:07:43 63° E 21:09:04 40° SE
ATLAS CENTAUR R/B 3.6 21:05:39 10° W 21:08:25 21° NW 21:11:16 10° NNE
Okean 2 4.1 21:08:12 25° SW 21:10:14 48° WNW 21:14:09 10° N
Meteor 1-4 Rocket 4.4 21:13:07 15° WSW 21:14:37 21° WNW 21:16:58 10° NNW
Cosmos 1953 3.2 21:16:07 10° NNW 21:19:42 38° W 21:20:51 30° SW
Cosmos 1315 Rocket 4.1 21:17:29 19° SW 21:19:45 36° WNW 21:23:29 10° N
H-2A R/B 4.1 21:19:56 10° ENE 21:22:01 13° E 21:22:19 13° E
Cosmos 1570 Rocket 4.0 21:17:16 10° NNW 21:22:38 76° WSW 21:24:46 37° S
PSLV R/B 3.8 21:20:37 10° NNE 21:24:37 85° WNW 21:25:44 46° SSW
Cosmos 1300 Rocket 3.4 21:20:42 10° N 21:25:02 79° E 21:26:10 48° SSE
Cosmos 304 Rocket 4.4 21:24:56 35° SE 21:25:46 38° ESE 21:30:10 10° NE
Cosmos 158 Rocket 3.9 21:23:11 10° NNW 21:28:32 87° ENE 21:30:29 39° SSE
Cosmos 2360 Rocket 3.9 21:24:32 10° NW 21:28:44 22° W 21:31:30 15° SW
Cosmos 1242 Rocket 3.3 21:29:31 31° W 21:29:41 31° WNW 21:32:13 10° N
BlueWalker 3 1.8 21:31:50 23° WSW 21:34:02 82° NNW 21:37:48 10° ENE
Cosmos 405 Rocket 3.9 21:33:47 10° N 21:37:10 31° ENE 21:37:51 28° E
USA 234 4.4 21:31:48 10° NE 21:37:54 44° NNW 21:44:00 10° W
COSMOS 2455 2.8 21:35:30 33° SSW 21:38:17 69° ESE 21:44:19 10° NE
CENTAUR R/B 3.7 21:37:35 20° ESE 21:38:17 20° ESE 21:42:46 10° ENE
ALOS 2 2.8 21:37:03 42° SE 21:38:18 61° ENE 21:42:39 10° N
NOSS 0 Rocket 3.9 21:36:31 10° NNW 21:42:48 86° ENE 21:45:42 34° SSE
Cosmos 2333 Rocket 4.1 21:40:48 10° WNW 21:44:33 18° W 21:47:09 14° SW
Cosmos 773 Rocket 4.0 21:44:56 10° NNW 21:50:05 73° ENE 21:51:58 40° SE
Spot 2 4.4 21:50:57 43° SSE 21:52:40 86° ENE 21:57:45 10° NNW
Cosmos 1709 Rocket 4.0 21:49:59 33° SSW 21:53:05 84° W 21:59:29 10° N
Cosmos 1455 4.2 21:52:08 10° NW 21:54:16 15° W 21:55:03 15° WSW
Cosmos 1408 3.0 21:55:12 41° WNW 21:55:12 41° WNW 21:57:57 10° N
Cosmos 2208 Rocket 4.4 21:52:10 10° NNW 21:57:10 50° WSW 21:58:40 38° SSW
SL-16 R/B 4.0 21:52:56 10° N 21:57:40 26° NE 22:02:22 10° ESE
H-2A R/B 3.0 21:58:41 41° SW 21:59:34 48° W 22:03:43 10° NNW
CZ-4C R/B 1.7 21:58:28 43° SSW 21:59:59 83° SE 22:05:33 10° NE
Cosmos 1703 3.0 22:00:20 70° SW 22:00:40 78° W 22:04:22 10° N
Cosmos 1892 3.6 22:03:36 32° E 22:03:36 32° E 22:06:39 10° NNE
Cosmos 2242 Rocket 4.0 22:02:21 38° SW 22:03:49 58° WNW 22:08:20 10° N
Cosmos 2237 Rocket 2.2 21:59:07 10° NNW 22:04:49 77° ENE 22:07:12 36° SE
Sich 1 Rocket 4.1 22:00:37 10° N 22:04:52 47° ENE 22:05:58 38° ESE
Cosmos 1777 Rocket 4.0 22:03:24 44° S 22:04:57 66° ESE 22:10:11 10° NNE
Cosmos 1503 Rocket 4.0 22:03:12 43° S 22:04:59 79° ESE 22:10:19 10° NNE
SJ 16-02 4.1 22:03:55 10° W 22:05:53 13° NW 22:07:53 10° NNW
Cosmos 2227 Rocket 2.8 22:08:29 36° SE 22:09:54 42° ESE 22:15:14 10° NE
Meteor 1-24 Rocket 3.7 22:10:17 38° SSW 22:12:37 84° W 22:18:17 10° N
GEOS 3 Rocket 4.2 22:10:25 10° NE 22:15:09 36° ESE 22:15:46 35° SE
Cosmos 371 Rocket 3.6 22:15:49 34° SW 22:17:44 59° WNW 22:22:30 10° NNE
Cosmos 1980 3.6 22:12:21 10° NNW 22:18:03 81° WSW 22:20:05 41° SSE
Cosmos 2154 Rocket 4.5 22:22:29 32° SE 22:25:02 49° E 22:31:02 10° NNE
NOSS 3-2 (A) 4.2 22:25:02 25° SE 22:25:44 26° ESE 22:30:27 10° ENE
Cosmos 2297 Rocket 2.3 22:27:16 34° SW 22:29:49 75° WNW 22:35:31 10° NNE
Cosmos 1825 2.0 22:31:23 67° E 22:31:23 67° E 22:34:40 10° NNE
SL-4 R/B 1.9 22:27:30 10° WNW 22:31:35 70° SSW 22:31:56 66° S
Cosmos 2219 4.0 22:32:08 31° SE 22:33:35 36° ESE 22:38:40 10° NE
Aureole 1 Rocket 4.4 22:35:45 21° E 22:35:53 21° E 22:39:01 10° NE
USA 281 4.5 22:34:22 21° SW 22:36:39 25° WSW 22:41:57 10° NW
Okean 1 Rocket 3.1 22:33:36 10° N 22:37:57 68° E 22:38:57 49° SE
PSLV R/B 3.8 22:38:37 10° N 22:42:46 57° WNW 22:43:45 44° WSW
Cosmos 1354 Rocket 4.3 22:44:52 34° SW 22:47:04 63° WNW 22:52:21 10° NNE
COSMOS 2428 4.3 22:45:40 10° NW 22:49:42 20° W 22:50:54 19° WSW
BREEZE-M DEB (TANK) 3.1 22:52:53 10° NW 22:54:55 29° NNE 22:54:55 29° NNE
Cosmos 2084 Rocket 3.8 22:55:25 36° WSW 22:56:55 59° NW 23:01:02 10° NNE
Cosmos 2181 Rocket 4.4 22:51:11 10° NNW 22:57:07 50° W 22:59:29 33° SW
H-2A R/B 2.2 22:53:57 10° N 22:58:09 60° WNW 22:59:07 46° SW
Cosmos 1975 Rocket 4.0 23:00:38 31° SE 23:01:49 37° E 23:05:52 10° NNE
Cosmos 2263 Rocket 2.8 23:00:27 33° SSE 23:02:12 43° ESE 23:07:27 10° NE
Cosmos 292 Rocket 4.3 23:01:50 38° SE 23:03:00 47° ESE 23:07:36 10° NNE
NOSS 8 (A) 4.4 23:03:27 10° NW 23:06:11 64° W 23:06:11 64° W
Cosmos 2074 Rocket 4.1 23:05:16 34° SSW 23:08:00 65° W 23:14:12 10° N
Cosmos 332 Rocket 4.3 23:09:40 32° WSW 23:11:34 51° WNW 23:16:22 10° NNE
Cosmos 405 Rocket 4.5 23:09:20 10° NW 23:12:04 19° W 23:12:07 19° W
BlueWalker 3 3.9 23:09:17 10° WNW 23:12:35 29° NNW 23:15:54 10° NE
Cosmos 1455 Rocket 3.2 23:10:03 10° N 23:14:30 70° E 23:15:56 41° SSE
Okean 2 Rocket 4.2 23:13:21 10° NNW 23:17:15 30° W 23:18:04 28° WSW
Cosmos 1818 4.3 23:17:01 10° NNW 23:22:24 52° NE 23:27:42 10° SE
Cosmos 1025 Rocket 3.2 23:25:42 44° SW 23:26:48 60° WNW 23:31:06 10° N
CENTAUR R/B 2.5 23:24:42 29° SW 23:27:49 77° NW 23:34:56 10° NE
Helios 1A Rocket 3.0 23:26:49 39° SE 23:28:00 61° ENE 23:31:46 10° N
Cosmos 990 Rocket 4.2 23:28:09 34° SW 23:30:16 60° WNW 23:35:21 10° NNE
Cosmos 1461 3.4 23:31:16 38° SE 23:31:44 39° ESE 23:35:24 10° NE
TIMED 4.4 23:33:37 47° SSW 23:34:49 84° WNW 23:39:10 10° NNE
In-Cosmos 22 Rocket 4.3 23:32:43 34° S 23:35:23 79° E 23:41:15 10° NNE
IDEFIX/ARIANE 42P 3.6 23:37:13 10° NNE 23:42:05 37° E 23:44:56 21° SSE
SL-16 R/B 2.3 23:36:35 10° NNW 23:42:12 61° WSW 23:44:44 32° S
SL-19 R/B 3.4 23:40:20 10° NNE 23:43:19 87° NNW 23:43:19 87° NNW
Nadezhda 3 Rocket 4.5 23:38:30 10° NNW 23:44:27 46° W 23:47:09 29° SW
Cosmos 2237 Rocket 3.8 23:44:40 10° WNW 23:48:08 17° W 23:48:59 16° WSW
CZ-4C R/B 4.2 23:45:10 10° W 23:49:14 24° NNW 23:54:05 10° NNE
Cosmos 2218 Rocket 4.2 23:46:33 26° S 23:50:11 67° E 23:56:19 10° NNE
BREEZE-M DEB (TANK) 1.8 23:46:50 10° WNW 23:51:40 59° SSW 23:51:40 59° SSW
Cosmos 2082 3.6 23:49:30 32° SSW 23:52:12 84° WNW 23:57:52 10° NNE
GEOS 3 Rocket 4.3 23:48:18 10° NNE 23:53:15 47° NW 23:56:49 18° WSW
Cosmos 1869 3.1 23:50:03 10° N 23:53:45 75° E 23:55:00 39° SSE
Cosmos 2227 Rocket 3.4 23:50:16 17° WSW 23:54:03 34° NW 23:59:12 10° NNE
